Location: Biberach+an+der+Riss
(48.0937°N, 9.7888°E)
Time: 21:37:37
(UTC+01:00)

ISS - Pass Details

Date: 10 February 2018
Orbit: 402 x 407 km, 51.6° (Epoch: 24 February)

Event Time Altitude Azimuth Distance (km) Brightness Sun altitude
Rises 18:39:16 0° 292° (WNW) 2,322 1.1 -11.2°
Reaches altitude 10° 18:41:22 10° 287° (WNW) 1,460 0.1 -11.6°
Maximum altitude 18:44:34 53° 210° (SSW) 502 -3.2 -12.1°
Enters shadow 18:47:34 11° 133° (SE) 1,382 -1.5 -12.6°
